Time,TemperatureF,DewpointF,PressureIn,WindDirection,WindDirectionDegrees,WindSpeedMPH,WindSpeedGustMPH,Humidity,HourlyPrecipIn,Conditions,Clouds,dailyrainin,SoftwareType,DateUTC
2013-07-09 00:01:00,77.6,73.1,30.01,NE,51,0.0,0.0,86,0.00,,---,0.00,VWS V13.01,2013-07-09 04:01:00,
2013-07-09 00:02:00,77.6,73.1,30.01,NE,51,0.0,0.0,86,0.00,,---,0.00,VWS V13.01,2013-07-09 04:02:00,
2013-07-09 00:03:00,77.6,73.1,30.01,NE,51,0.0,0.0,86,0.00,,---,0.00,VWS V13.01,2013-07-09 04:03:00,
2013-07-09 00:08:00,77.4,72.9,30.01,NE,51,0.0,1.0,86,0.00,,---,0.00,VWS V13.01,2013-07-09 04:08:00,
2013-07-09 00:13:00,77.3,72.8,30.01,NE,51,0.0,1.0,86,0.00,,---,0.00,VWS V13.01,2013-07-09 04:13:00,
2013-07-09 00:18:00,77.2,73.0,30.01,NE,51,0.0,0.0,87,0.00,,---,0.00,VWS V13.01,2013-07-09 04:18:00,
2013-07-09 00:23:00,77.0,72.8,30.01,NE,51,0.0,0.0,87,0.00,,---,0.00,VWS V13.01,2013-07-09 04:23:00,
2013-07-09 00:28:00,77.0,72.8,30.01,NE,51,0.0,0.0,87,0.00,,---,0.00,VWS V13.01,2013-07-09 04:28:00,
2013-07-09 00:33:00,76.9,73.1,30.01,NE,51,0.0,0.0,88,0.00,,---,0.00,VWS V13.01,2013-07-09 04:33:00,
2013-07-09 00:38:00,76.9,73.1,30.01,NE,51,0.0,0.0,88,0.00,,---,0.00,VWS V13.01,2013-07-09 04:38:00,
2013-07-09 00:43:00,76.9,73.1,30.01,NE,51,0.0,0.0,88,0.00,,---,0.00,VWS V13.01,2013-07-09 04:43:00,
2013-07-09 00:48:00,76.8,73.0,30.01,NE,51,0.0,0.0,88,0.00,,---,0.00,VWS V13.01,2013-07-09 04:48:00,
2013-07-09 00:53:00,76.7,72.9,30.01,NE,51,0.0,0.0,88,0.00,,---,0.00,VWS V13.01,2013-07-09 04:53:00,
2013-07-09 00:58:00,76.7,72.9,30.00,NE,51,0.0,0.0,88,0.00,,---,0.00,VWS V13.01,2013-07-09 04:58:00,
2013-07-09 01:03:00,76.6,73.1,30.00,NE,51,0.0,0.0,89,0.00,,---,0.00,VWS V13.01,2013-07-09 05:03:00,
2013-07-09 01:08:00,76.6,73.1,30.00,NE,51,0.0,0.0,89,0.00,,---,0.00,VWS V13.01,2013-07-09 05:08:00,
2013-07-09 01:13:00,76.6,73.1,30.00,NE,51,0.0,0.0,89,0.00,,---,0.00,VWS V13.01,2013-07-09 05:13:00,
2013-07-09 01:18:00,76.5,73.0,30.00,NE,51,0.0,0.0,89,0.00,,---,0.00,VWS V13.01,2013-07-09 05:18:00,
2013-07-09 01:23:00,76.4,72.9,30.00,NE,51,0.0,0.0,89,0.00,,---,0.00,VWS V13.01,2013-07-09 05:23:00,
2013-07-09 01:28:00,76.4,72.9,30.00,NE,51,0.0,0.0,89,0.00,,---,0.00,VWS V13.01,2013-07-09 05:28:00,
2013-07-09 01:33:00,76.4,73.2,30.00,NE,51,0.0,0.0,90,0.00,,---,0.00,VWS V13.01,2013-07-09 05:33:00,
2013-07-09 01:38:00,76.3,73.2,30.00,NE,51,0.0,0.0,90,0.00,,---,0.00,VWS V13.01,2013-07-09 05:38:00,
2013-07-09 01:43:00,76.3,73.2,30.00,NE,51,0.0,0.0,90,0.00,,---,0.00,VWS V13.01,2013-07-09 05:43:00,
2013-07-09 01:48:00,76.2,73.1,30.00,NE,51,0.0,0.0,90,0.00,,---,0.00,VWS V13.01,2013-07-09 05:48:00,
2013-07-09 01:53:00,76.2,73.1,29.99,NE,51,0.0,0.0,90,0.00,,---,0.00,VWS V13.01,2013-07-09 05:53:00,
2013-07-09 01:58:00,76.1,73.0,29.99,NE,51,0.0,0.0,90,0.00,,---,0.00,VWS V13.01,2013-07-09 05:58:00,
2013-07-09 02:03:00,76.0,72.9,29.99,NE,51,0.0,0.0,90,0.00,,---,0.00,VWS V13.01,2013-07-09 06:03:00,
2013-07-09 02:08:00,75.9,72.8,29.99,NE,51,0.0,0.0,90,0.00,,---,0.00,VWS V13.01,2013-07-09 06:08:00,
2013-07-09 02:13:00,75.8,73.0,29.99,NE,51,0.0,0.0,91,0.00,,---,0.00,VWS V13.01,2013-07-09 06:13:00,
2013-07-09 02:18:00,75.8,73.0,29.99,NE,52,0.0,0.0,91,0.00,,---,0.00,VWS V13.01,2013-07-09 06:18:00,
2013-07-09 02:23:00,75.8,73.0,29.98,NE,52,0.0,0.0,91,0.00,,---,0.00,VWS V13.01,2013-07-09 06:23:00,
2013-07-09 02:28:00,75.7,73.2,29.98,NE,52,0.0,0.0,92,0.00,,---,0.00,VWS V13.01,2013-07-09 06:28:00,
2013-07-09 02:33:00,75.7,73.2,29.98,NE,52,0.0,0.0,92,0.00,,---,0.00,VWS V13.01,2013-07-09 06:33:00,
2013-07-09 02:38:00,75.7,73.2,29.98,NE,52,0.0,0.0,92,0.00,,---,0.00,VWS V13.01,2013-07-09 06:38:00,
2013-07-09 02:43:00,75.5,73.0,29.98,NE,52,0.0,0.0,92,0.00,,---,0.00,VWS V13.01,2013-07-09 06:43:00,
2013-07-09 02:48:00,75.4,72.9,29.97,NE,52,0.0,0.0,92,0.00,,---,0.00,VWS V13.01,2013-07-09 06:48:00,
2013-07-09 02:53:00,75.3,72.8,29.97,NE,52,0.0,0.0,92,0.00,,---,0.00,VWS V13.01,2013-07-09 06:53:00,
2013-07-09 02:58:00,75.3,72.8,29.97,NE,52,0.0,0.0,92,0.00,,---,0.00,VWS V13.01,2013-07-09 06:58:00,
2013-07-09 03:03:00,75.3,72.8,29.97,NE,52,0.0,0.0,92,0.00,,---,0.00,VWS V13.01,2013-07-09 07:03:00,
2013-07-09 03:08:00,75.3,72.8,29.97,NE,52,0.0,0.0,92,0.00,,---,0.00,VWS V13.01,2013-07-09 07:08:00,
2013-07-09 03:13:00,75.2,72.7,29.97,NE,52,0.0,0.0,92,0.00,,---,0.00,VWS V13.01,2013-07-09 07:13:00,
2013-07-09 03:18:00,75.1,72.6,29.97,NE,52,0.0,0.0,92,0.00,,---,0.00,VWS V13.01,2013-07-09 07:18:00,
2013-07-09 03:23:00,75.0,72.8,29.97,NE,52,0.0,0.0,93,0.00,,---,0.00,VWS V13.01,2013-07-09 07:23:00,
2013-07-09 03:28:00,75.0,72.8,29.97,NE,52,0.0,0.0,93,0.00,,---,0.00,VWS V13.01,2013-07-09 07:28:00,
2013-07-09 03:33:00,74.9,72.7,29.97,NE,52,0.0,0.0,93,0.00,,---,0.00,VWS V13.01,2013-07-09 07:33:00,
2013-07-09 03:38:00,74.8,72.6,29.97,NE,52,0.0,0.0,93,0.00,,---,0.00,VWS V13.01,2013-07-09 07:38:00,
2013-07-09 03:44:00,74.7,72.6,29.97,NE,52,0.0,0.0,93,0.00,,---,0.00,VWS V13.01,2013-07-09 07:44:00,
2013-07-09 03:49:00,74.6,72.4,29.97,NE,52,0.0,0.0,93,0.00,,---,0.00,VWS V13.01,2013-07-09 07:49:00,
2013-07-09 03:54:00,74.6,72.4,29.97,NE,52,0.0,0.0,93,0.00,,---,0.00,VWS V13.01,2013-07-09 07:54:00,
2013-07-09 03:59:00,74.6,72.4,29.97,NE,52,0.0,0.0,93,0.00,,---,0.00,VWS V13.01,2013-07-09 07:59:00,
2013-07-09 04:04:00,74.5,72.3,29.97,NE,52,0.0,0.0,93,0.00,,---,0.00,VWS V13.01,2013-07-09 08:04:00,
2013-07-09 04:09:00,74.4,72.2,29.96,NE,52,0.0,0.0,93,0.00,,---,0.00,VWS V13.01,2013-07-09 08:09:00,
2013-07-09 04:14:00,74.4,72.2,29.96,NE,52,0.0,0.0,93,0.00,,---,0.00,VWS V13.01,2013-07-09 08:14:00,
2013-07-09 04:19:00,74.3,72.5,29.96,NE,52,0.0,0.0,94,0.00,,---,0.00,VWS V13.01,2013-07-09 08:19:00,
2013-07-09 04:24:00,74.3,72.5,29.96,NE,52,0.0,0.0,94,0.00,,---,0.00,VWS V13.01,2013-07-09 08:24:00,
2013-07-09 04:29:00,74.2,72.4,29.96,NE,52,0.0,0.0,94,0.00,,---,0.00,VWS V13.01,2013-07-09 08:29:00,
2013-07-09 04:34:00,74.2,72.4,29.96,NE,52,0.0,1.0,94,0.00,,---,0.00,VWS V13.01,2013-07-09 08:34:00,
2013-07-09 04:39:00,74.2,72.4,29.96,NE,52,0.0,0.0,94,0.00,,---,0.00,VWS V13.01,2013-07-09 08:39:00,
2013-07-09 04:44:00,74.1,72.3,29.96,NE,52,0.0,2.0,94,0.00,,---,0.00,VWS V13.01,2013-07-09 08:44:00,
2013-07-09 04:49:00,74.1,72.3,29.96,NE,52,0.0,0.0,94,0.00,,---,0.00,VWS V13.01,2013-07-09 08:49:00,
2013-07-09 04:54:00,74.0,72.2,29.96,NE,52,0.0,0.0,94,0.00,,---,0.00,VWS V13.01,2013-07-09 08:54:00,
2013-07-09 04:59:00,73.9,72.1,29.96,NE,52,0.0,0.0,94,0.00,,---,0.00,VWS V13.01,2013-07-09 08:59:00,
2013-07-09 05:04:00,73.9,72.1,29.96,NE,52,0.0,0.0,94,0.00,,---,0.00,VWS V13.01,2013-07-09 09:04:00,
2013-07-09 05:09:00,73.6,71.8,29.96,NE,52,0.0,0.0,94,0.00,,---,0.00,VWS V13.01,2013-07-09 09:09:00,
2013-07-09 05:14:00,73.5,71.7,29.96,NE,52,0.0,0.0,94,0.00,,---,0.00,VWS V13.01,2013-07-09 09:14:00,
2013-07-09 05:19:00,73.3,71.5,29.96,NE,34,0.0,0.0,94,0.00,,---,0.00,VWS V13.01,2013-07-09 09:19:00,
2013-07-09 05:24:00,73.3,71.5,29.96,NE,34,0.0,0.0,94,0.00,,---,0.00,VWS V13.01,2013-07-09 09:24:00,
2013-07-09 05:29:00,73.3,71.5,29.97,NE,34,0.0,0.0,94,0.00,,---,0.00,VWS V13.01,2013-07-09 09:29:00,
2013-07-09 05:34:00,73.2,71.4,29.97,NE,34,0.0,0.0,94,0.00,,---,0.00,VWS V13.01,2013-07-09 09:34:00,
2013-07-09 05:39:00,73.1,71.3,29.97,NE,34,0.0,0.0,94,0.00,,---,0.00,VWS V13.01,2013-07-09 09:39:00,
2013-07-09 05:44:00,73.2,71.4,29.97,NE,34,0.0,0.0,94,0.00,,---,0.00,VWS V13.01,2013-07-09 09:44:00,
2013-07-09 05:49:00,73.3,71.5,29.97,ENE,65,0.0,0.0,94,0.00,,---,0.00,VWS V13.01,2013-07-09 09:49:00,
2013-07-09 05:54:00,73.3,71.8,29.97,ENE,66,0.0,0.0,95,0.00,,---,0.00,VWS V13.01,2013-07-09 09:54:00,
2013-07-09 05:59:00,73.5,72.0,29.97,ENE,65,0.0,0.0,95,0.00,,---,0.00,VWS V13.01,2013-07-09 09:59:00,
2013-07-09 06:04:00,73.5,72.0,29.97,ENE,66,0.0,0.0,95,0.00,,---,0.00,VWS V13.01,2013-07-09 10:04:00,
2013-07-09 06:09:00,73.6,72.1,29.97,ENE,65,0.0,0.0,95,0.00,,---,0.00,VWS V13.01,2013-07-09 10:09:00,
2013-07-09 06:14:00,73.5,72.0,29.97,ENE,65,0.0,0.0,95,0.00,,---,0.00,VWS V13.01,2013-07-09 10:14:00,
2013-07-09 06:19:00,73.3,71.5,29.97,ENE,65,0.0,0.0,94,0.00,,---,0.00,VWS V13.01,2013-07-09 10:19:00,
2013-07-09 06:24:00,73.1,71.6,29.97,ENE,65,0.0,0.0,95,0.00,,---,0.00,VWS V13.01,2013-07-09 10:24:00,
2013-07-09 06:29:00,73.0,71.5,29.97,ENE,65,0.0,0.0,95,0.00,,---,0.00,VWS V13.01,2013-07-09 10:29:00,
2013-07-09 06:34:00,72.9,71.4,29.98,ENE,65,0.0,0.0,95,0.00,,---,0.00,VWS V13.01,2013-07-09 10:34:00,
2013-07-09 06:39:00,72.8,71.3,29.98,ENE,65,0.0,0.0,95,0.00,,---,0.00,VWS V13.01,2013-07-09 10:39:00,
2013-07-09 06:44:00,72.8,71.3,29.98,ENE,65,0.0,0.0,95,0.00,,---,0.00,VWS V13.01,2013-07-09 10:44:00,
2013-07-09 06:49:00,72.8,71.3,29.98,ENE,65,0.0,0.0,95,0.00,,---,0.00,VWS V13.01,2013-07-09 10:49:00,
2013-07-09 06:54:00,72.9,71.4,29.98,ENE,65,0.0,0.0,95,0.00,,---,0.00,VWS V13.01,2013-07-09 10:54:00,
2013-07-09 06:59:00,72.8,71.3,29.98,SSE,148,0.0,0.0,95,0.00,,---,0.00,VWS V13.01,2013-07-09 10:59:00,
2013-07-09 07:04:00,72.8,71.3,29.98,SSW,206,0.0,0.0,95,0.00,,---,0.00,VWS V13.01,2013-07-09 11:04:00,
2013-07-09 07:09:00,72.7,71.2,29.99,East,92,0.0,0.0,95,0.00,,---,0.00,VWS V13.01,2013-07-09 11:09:00,
2013-07-09 07:14:00,72.8,71.3,29.99,SE,137,0.0,0.0,95,0.00,,---,0.00,VWS V13.01,2013-07-09 11:14:00,
2013-07-09 07:19:00,72.9,71.4,29.99,SE,137,0.0,0.0,95,0.00,,---,0.00,VWS V13.01,2013-07-09 11:19:00,
2013-07-09 07:24:00,73.1,71.6,29.99,SE,137,0.0,0.0,95,0.00,,---,0.00,VWS V13.01,2013-07-09 11:24:00,
2013-07-09 07:29:00,73.4,71.9,29.99,SE,137,0.0,0.0,95,0.00,,---,0.00,VWS V13.01,2013-07-09 11:29:00,
2013-07-09 07:34:00,73.8,72.3,29.99,SE,137,0.0,0.0,95,0.00,,---,0.00,VWS V13.01,2013-07-09 11:34:00,
2013-07-09 07:39:00,74.2,72.7,29.99,SE,137,0.0,0.0,95,0.00,,---,0.00,VWS V13.01,2013-07-09 11:39:00,
2013-07-09 07:44:00,74.7,73.2,29.99,SE,137,0.0,0.0,95,0.00,,---,0.00,VWS V13.01,2013-07-09 11:44:00,
2013-07-09 07:49:00,75.2,73.7,29.99,SE,137,0.0,0.0,95,0.00,,---,0.00,VWS V13.01,2013-07-09 11:49:00,
2013-07-09 07:54:00,75.8,73.9,29.99,SE,137,0.0,0.0,94,0.00,,---,0.00,VWS V13.01,2013-07-09 11:54:00,
2013-07-09 07:59:00,76.5,74.7,30.00,SE,137,0.0,0.0,94,0.00,,---,0.00,VWS V13.01,2013-07-09 11:59:00,
2013-07-09 08:04:00,77.1,74.9,30.00,SE,137,0.0,0.0,93,0.00,,---,0.00,VWS V13.01,2013-07-09 12:04:00,
2013-07-09 08:09:00,77.6,75.1,30.00,SE,137,0.0,0.0,92,0.00,,---,0.00,VWS V13.01,2013-07-09 12:09:00,
2013-07-09 08:15:00,78.0,75.5,30.00,SE,137,0.0,0.0,92,0.00,,---,0.00,VWS V13.01,2013-07-09 12:15:00,
2013-07-09 08:20:00,78.5,75.7,30.00,SE,137,0.0,0.0,91,0.00,,---,0.00,VWS V13.01,2013-07-09 12:20:00,
2013-07-09 08:25:00,78.7,75.5,30.00,SE,131,0.0,0.0,90,0.00,,---,0.00,VWS V13.01,2013-07-09 12:25:00,
2013-07-09 08:30:00,79.2,76.0,30.00,SE,130,0.0,0.0,90,0.00,,---,0.00,VWS V13.01,2013-07-09 12:30:00,
2013-07-09 08:35:00,79.6,76.1,30.00,SE,131,0.0,0.0,89,0.00,,---,0.00,VWS V13.01,2013-07-09 12:35:00,
2013-07-09 08:40:00,80.1,76.6,30.00,SE,129,0.0,0.0,89,0.00,,---,0.00,VWS V13.01,2013-07-09 12:40:00,
2013-07-09 08:45:00,80.5,76.6,30.00,SE,129,0.0,0.0,88,0.00,,---,0.00,VWS V13.01,2013-07-09 12:45:00,
2013-07-09 08:50:00,81.0,76.4,30.00,SE,129,0.0,0.0,86,0.00,,---,0.00,VWS V13.01,2013-07-09 12:50:00,
2013-07-09 08:55:00,81.6,77.0,30.00,SE,128,0.0,0.0,86,0.00,,---,0.00,VWS V13.01,2013-07-09 12:55:00,
2013-07-09 09:00:00,82.0,77.1,30.01,ESE,105,0.0,0.0,85,0.00,,---,0.00,VWS V13.01,2013-07-09 13:00:00,
2013-07-09 09:05:00,82.5,77.2,30.01,ESE,105,0.0,0.0,84,0.00,,---,0.00,VWS V13.01,2013-07-09 13:05:00,
2013-07-09 09:10:00,82.8,77.1,30.01,ENE,69,0.0,0.0,83,0.00,,---,0.00,VWS V13.01,2013-07-09 13:10:00,
2013-07-09 09:15:00,83.1,77.0,30.01,ENE,70,0.0,0.0,82,0.00,,---,0.00,VWS V13.01,2013-07-09 13:15:00,
2013-07-09 09:20:00,83.4,77.0,30.01,ENE,60,0.0,0.0,81,0.00,,---,0.00,VWS V13.01,2013-07-09 13:20:00,
2013-07-09 09:25:00,83.7,76.9,30.01,East,98,0.0,0.0,80,0.00,,---,0.00,VWS V13.01,2013-07-09 13:25:00,
2013-07-09 09:30:00,84.1,76.9,30.01,East,79,0.0,0.0,79,0.00,,---,0.00,VWS V13.01,2013-07-09 13:30:00,
2013-07-09 09:35:00,84.5,77.7,30.00,ENE,66,0.0,0.0,80,0.00,,---,0.00,VWS V13.01,2013-07-09 13:35:00,
2013-07-09 09:40:00,84.5,76.9,30.00,ENE,62,0.0,0.0,78,0.00,,---,0.00,VWS V13.01,2013-07-09 13:40:00,
2013-07-09 09:45:00,84.6,77.4,30.00,ENE,62,0.0,0.0,79,0.00,,---,0.00,VWS V13.01,2013-07-09 13:45:00,
2013-07-09 09:50:00,85.0,77.0,30.01,ENE,75,0.0,0.0,77,0.00,,---,0.00,VWS V13.01,2013-07-09 13:50:00,
2013-07-09 09:55:00,85.0,77.0,30.01,ENE,75,0.0,0.0,77,0.00,,---,0.00,VWS V13.01,2013-07-09 13:55:00,
2013-07-09 10:00:00,85.3,76.9,30.01,ENE,75,0.0,0.0,76,0.00,,---,0.00,VWS V13.01,2013-07-09 14:00:00,
2013-07-09 10:05:00,85.6,78.0,30.00,ENE,75,0.0,0.0,78,0.00,,---,0.00,VWS V13.01,2013-07-09 14:05:00,
2013-07-09 10:10:00,85.9,77.1,30.01,ESE,112,0.0,0.0,75,0.00,,---,0.00,VWS V13.01,2013-07-09 14:10:00,
2013-07-09 10:15:00,86.2,77.8,30.01,ESE,111,0.0,0.0,76,0.00,,---,0.00,VWS V13.01,2013-07-09 14:15:00,
2013-07-09 10:20:00,86.3,76.6,30.01,ESE,109,0.0,0.0,73,0.00,,---,0.00,VWS V13.01,2013-07-09 14:20:00,
2013-07-09 10:25:00,86.7,76.6,30.01,ENE,62,0.0,1.0,72,0.00,,---,0.00,VWS V13.01,2013-07-09 14:25:00,
2013-07-09 10:30:00,86.8,77.1,30.01,ENE,62,0.0,0.0,73,0.00,,---,0.00,VWS V13.01,2013-07-09 14:30:00,
2013-07-09 10:35:00,86.7,75.8,30.01,ENE,61,0.0,0.0,70,0.00,,---,0.00,VWS V13.01,2013-07-09 14:35:00,
2013-07-09 10:40:00,86.3,76.6,30.01,ENE,62,0.0,0.0,73,0.00,,---,0.00,VWS V13.01,2013-07-09 14:40:00,
2013-07-09 10:45:00,86.0,76.3,30.01,ENE,61,0.0,0.0,73,0.00,,---,0.00,VWS V13.01,2013-07-09 14:45:00,
2013-07-09 10:50:00,85.6,76.4,30.01,ENE,60,0.0,1.0,74,0.00,,---,0.00,VWS V13.01,2013-07-09 14:50:00,
2013-07-09 10:55:00,85.4,75.3,30.01,ENE,61,0.0,1.0,72,0.00,,---,0.00,VWS V13.01,2013-07-09 14:55:00,
2013-07-09 11:00:00,85.4,74.9,30.01,ENE,60,0.0,0.0,71,0.00,,---,0.00,VWS V13.01,2013-07-09 15:00:00,
2013-07-09 11:05:00,85.9,75.4,30.01,ENE,60,0.0,0.0,71,0.00,,---,0.00,VWS V13.01,2013-07-09 15:05:00,
2013-07-09 11:10:00,86.1,74.8,30.01,ENE,74,0.0,0.0,69,0.00,,---,0.00,VWS V13.01,2013-07-09 15:10:00,
2013-07-09 11:15:00,86.4,75.5,30.01,ENE,74,0.0,0.0,70,0.00,,---,0.00,VWS V13.01,2013-07-09 15:15:00,
2013-07-09 11:20:00,86.7,74.9,30.01,NE,49,0.0,4.0,68,0.00,,---,0.00,VWS V13.01,2013-07-09 15:20:00,
2013-07-09 11:25:00,87.3,75.9,30.01,ENE,67,0.0,4.0,69,0.00,,---,0.00,VWS V13.01,2013-07-09 15:25:00,
2013-07-09 11:30:00,87.7,75.4,30.01,ENE,68,0.0,0.0,67,0.00,,---,0.00,VWS V13.01,2013-07-09 15:30:00,
2013-07-09 11:35:00,87.9,76.0,30.01,ENE,67,0.0,0.0,68,0.00,,---,0.00,VWS V13.01,2013-07-09 15:35:00,
2013-07-09 11:40:00,88.1,74.4,30.01,ENE,67,0.0,0.0,64,0.00,,---,0.00,VWS V13.01,2013-07-09 15:40:00,
2013-07-09 11:45:00,88.1,75.3,30.02,NE,51,0.0,0.0,66,0.00,,---,0.00,VWS V13.01,2013-07-09 15:45:00,
2013-07-09 11:50:00,88.3,76.8,30.02,NE,39,0.0,4.0,69,0.00,,---,0.00,VWS V13.01,2013-07-09 15:50:00,
2013-07-09 11:55:00,88.7,75.0,30.02,NE,42,0.0,0.0,64,0.00,,---,0.00,VWS V13.01,2013-07-09 15:55:00,
2013-07-09 12:01:00,88.5,74.3,30.01,NE,56,0.0,5.0,63,0.00,,---,0.00,VWS V13.01,2013-07-09 16:01:00,
2013-07-09 12:06:00,88.4,74.7,30.01,ENE,63,0.0,0.0,64,0.00,,---,0.00,VWS V13.01,2013-07-09 16:06:00,
2013-07-09 12:11:00,88.0,74.3,30.01,ENE,57,0.0,0.0,64,0.00,,---,0.00,VWS V13.01,2013-07-09 16:11:00,
2013-07-09 12:16:00,87.5,74.3,30.01,ENE,58,0.0,0.0,65,0.00,,---,0.00,VWS V13.01,2013-07-09 16:16:00,
2013-07-09 12:21:00,87.4,74.7,30.01,East,94,0.0,0.0,66,0.00,,---,0.00,VWS V13.01,2013-07-09 16:21:00,
2013-07-09 12:26:00,87.8,75.5,30.01,ENE,64,0.0,0.0,67,0.00,,---,0.00,VWS V13.01,2013-07-09 16:26:00,
2013-07-09 12:31:00,88.1,74.9,30.01,ENE,63,0.0,0.0,65,0.00,,---,0.00,VWS V13.01,2013-07-09 16:31:00,
2013-07-09 12:36:00,88.3,76.0,30.00,ESE,109,0.0,0.0,67,0.00,,---,0.00,VWS V13.01,2013-07-09 16:36:00,
2013-07-09 12:41:00,88.5,75.2,30.00,East,82,0.0,2.0,65,0.00,,---,0.00,VWS V13.01,2013-07-09 16:41:00,
2013-07-09 12:46:00,88.6,73.9,30.00,ENE,59,0.0,0.0,62,0.00,,---,0.00,VWS V13.01,2013-07-09 16:46:00,
2013-07-09 12:51:00,88.3,73.6,30.00,ENE,73,0.0,3.0,62,0.00,,---,0.00,VWS V13.01,2013-07-09 16:51:00,
2013-07-09 12:56:00,88.3,74.1,30.00,NNE,25,0.0,2.0,63,0.00,,---,0.00,VWS V13.01,2013-07-09 16:56:00,
2013-07-09 13:01:00,88.1,73.4,30.00,NNE,25,0.0,2.0,62,0.00,,---,0.00,VWS V13.01,2013-07-09 17:01:00,
2013-07-09 13:06:00,87.6,73.5,30.00,ENE,65,0.0,0.0,63,0.00,,---,0.00,VWS V13.01,2013-07-09 17:06:00,
2013-07-09 13:11:00,87.4,74.7,30.00,ESE,111,0.0,1.0,66,0.00,,---,0.00,VWS V13.01,2013-07-09 17:11:00,
2013-07-09 13:16:00,87.1,73.9,30.00,East,79,0.0,0.0,65,0.00,,---,0.00,VWS V13.01,2013-07-09 17:16:00,
2013-07-09 13:21:00,87.1,74.4,30.00,ENE,76,0.0,0.0,66,0.00,,---,0.00,VWS V13.01,2013-07-09 17:21:00,
2013-07-09 13:26:00,87.4,75.1,29.99,ENE,75,0.0,0.0,67,0.00,,---,0.00,VWS V13.01,2013-07-09 17:26:00,
2013-07-09 13:31:00,87.9,74.7,29.99,ESE,117,0.0,1.0,65,0.00,,---,0.00,VWS V13.01,2013-07-09 17:31:00,
2013-07-09 13:36:00,88.4,75.1,29.99,South,184,0.0,0.0,65,0.00,,---,0.00,VWS V13.01,2013-07-09 17:36:00,
2013-07-09 13:41:00,88.7,74.0,29.99,NE,53,4.0,9.0,62,0.00,,---,0.00,VWS V13.01,2013-07-09 17:41:00,
2013-07-09 13:46:00,89.2,74.5,29.99,ENE,68,0.0,3.0,62,0.00,,---,0.00,VWS V13.01,2013-07-09 17:46:00,
2013-07-09 13:51:00,89.7,73.5,29.99,NE,48,0.0,3.0,59,0.00,,---,0.00,VWS V13.01,2013-07-09 17:51:00,
2013-07-09 13:56:00,89.9,74.7,29.98,NE,55,0.0,1.0,61,0.00,,---,0.00,VWS V13.01,2013-07-09 17:56:00,
2013-07-09 14:01:00,89.7,74.0,29.98,East,81,0.0,5.0,60,0.00,,---,0.00,VWS V13.01,2013-07-09 18:01:00,
2013-07-09 14:06:00,89.5,74.3,29.98,ENE,68,1.0,1.0,61,0.00,,---,0.00,VWS V13.01,2013-07-09 18:06:00,
2013-07-09 14:11:00,89.3,73.6,29.98,SE,126,0.0,4.0,60,0.00,,---,0.00,VWS V13.01,2013-07-09 18:11:00,
2013-07-09 14:16:00,88.9,73.7,29.98,NE,41,0.0,3.0,61,0.00,,---,0.00,VWS V13.01,2013-07-09 18:16:00,
2013-07-09 14:21:00,88.6,74.4,29.98,NNE,32,0.0,3.0,63,0.00,,---,0.00,VWS V13.01,2013-07-09 18:21:00,
2013-07-09 14:26:00,89.1,74.4,29.98,NNE,24,0.0,5.0,62,0.00,,---,0.00,VWS V13.01,2013-07-09 18:26:00,
2013-07-09 14:32:00,89.6,75.3,29.98,ENE,70,0.0,5.0,63,0.00,,---,0.00,VWS V13.01,2013-07-09 18:32:00,
2013-07-09 14:37:00,89.6,72.9,29.97,ESE,110,4.0,7.0,58,0.00,,---,0.00,VWS V13.01,2013-07-09 18:37:00,
2013-07-09 14:42:00,89.4,73.7,29.97,NE,48,0.0,7.0,60,0.00,,---,0.00,VWS V13.01,2013-07-09 18:42:00,
2013-07-09 14:47:00,89.5,73.8,29.97,NE,53,0.0,0.0,60,0.00,,---,0.00,VWS V13.01,2013-07-09 18:47:00,
2013-07-09 14:52:00,89.7,74.5,29.97,NE,47,0.0,5.0,61,0.00,,---,0.00,VWS V13.01,2013-07-09 18:52:00,
2013-07-09 14:57:00,90.0,73.2,29.97,NE,39,6.0,6.0,58,0.00,,---,0.00,VWS V13.01,2013-07-09 18:57:00,
2013-07-09 15:02:00,90.1,73.8,29.96,East,79,0.0,6.0,59,0.00,,---,0.00,VWS V13.01,2013-07-09 19:02:00,
2013-07-09 15:07:00,90.2,72.9,29.96,NE,39,0.0,0.0,57,0.00,,---,0.00,VWS V13.01,2013-07-09 19:07:00,
2013-07-09 15:12:00,90.2,72.9,29.96,ENE,71,0.0,2.0,57,0.00,,---,0.00,VWS V13.01,2013-07-09 19:12:00,
2013-07-09 15:17:00,90.3,72.5,29.95,ENE,59,0.0,0.0,56,0.00,,---,0.00,VWS V13.01,2013-07-09 19:17:00,
2013-07-09 15:22:00,90.6,73.3,29.95,NE,55,0.0,1.0,57,0.00,,---,0.00,VWS V13.01,2013-07-09 19:22:00,
2013-07-09 15:27:00,90.4,72.1,29.95,ENE,58,0.0,5.0,55,0.00,,---,0.00,VWS V13.01,2013-07-09 19:27:00,
2013-07-09 15:32:00,90.2,72.9,29.95,NNE,33,0.0,5.0,57,0.00,,---,0.00,VWS V13.01,2013-07-09 19:32:00,
2013-07-09 15:37:00,90.4,73.1,29.94,East,87,1.0,2.0,57,0.00,,---,0.00,VWS V13.01,2013-07-09 19:37:00,
2013-07-09 15:42:00,90.4,72.1,29.94,ENE,71,2.0,7.0,55,0.00,,---,0.00,VWS V13.01,2013-07-09 19:42:00,
2013-07-09 15:47:00,90.4,72.1,29.94,ENE,68,0.0,0.0,55,0.00,,---,0.00,VWS V13.01,2013-07-09 19:47:00,
2013-07-09 15:52:00,90.6,72.8,29.93,East,82,0.0,5.0,56,0.00,,---,0.00,VWS V13.01,2013-07-09 19:52:00,
2013-07-09 15:57:00,90.7,72.9,29.93,ESE,109,1.0,3.0,56,0.00,,---,0.00,VWS V13.01,2013-07-09 19:57:00,
2013-07-09 16:02:00,90.6,72.2,29.93,ENE,65,0.0,3.0,55,0.00,,---,0.00,VWS V13.01,2013-07-09 20:02:00,
2013-07-09 16:07:00,90.4,71.5,29.93,NNE,28,0.0,0.0,54,0.00,,---,0.00,VWS V13.01,2013-07-09 20:07:00,
2013-07-09 16:12:00,90.6,71.7,29.92,ESE,107,0.0,3.0,54,0.00,,---,0.00,VWS V13.01,2013-07-09 20:12:00,
2013-07-09 16:17:00,90.4,71.5,29.92,ENE,68,0.0,0.0,54,0.00,,---,0.00,VWS V13.01,2013-07-09 20:17:00,
2013-07-09 16:22:00,90.3,71.4,29.92,ENE,69,0.0,4.0,54,0.00,,---,0.00,VWS V13.01,2013-07-09 20:22:00,
2013-07-09 16:27:00,90.4,70.9,29.92,ENE,76,0.0,5.0,53,0.00,,---,0.00,VWS V13.01,2013-07-09 20:27:00,
2013-07-09 16:33:00,90.6,70.6,29.92,East,98,0.0,5.0,52,0.00,,---,0.00,VWS V13.01,2013-07-09 20:33:00,
2013-07-09 16:38:00,90.7,70.7,29.92,NE,56,0.0,5.0,52,0.00,,---,0.00,VWS V13.01,2013-07-09 20:38:00,
2013-07-09 16:43:00,90.5,69.9,29.92,NE,50,0.0,5.0,51,0.00,,---,0.00,VWS V13.01,2013-07-09 20:43:00,
2013-07-09 16:48:00,90.1,76.3,29.92,South,172,0.0,11.0,64,0.00,,---,0.00,VWS V13.01,2013-07-09 20:48:00,
2013-07-09 16:53:00,89.4,76.6,29.92,SE,135,0.0,11.0,66,0.00,,---,0.00,VWS V13.01,2013-07-09 20:53:00,
2013-07-09 16:58:00,88.7,75.9,29.92,ESE,118,0.0,4.0,66,0.00,,---,0.00,VWS V13.01,2013-07-09 20:58:00,
2013-07-09 17:03:00,88.0,76.1,29.92,SSW,197,9.0,10.0,68,0.00,,---,0.00,VWS V13.01,2013-07-09 21:03:00,
2013-07-09 17:08:00,87.1,76.6,29.92,ESE,121,0.0,5.0,71,0.00,,---,0.00,VWS V13.01,2013-07-09 21:08:00,
2013-07-09 17:13:00,86.6,76.1,29.92,South,183,4.0,5.0,71,0.00,,---,0.00,VWS V13.01,2013-07-09 21:13:00,
2013-07-09 17:18:00,85.9,75.4,29.92,South,185,0.0,10.0,71,0.00,,---,0.00,VWS V13.01,2013-07-09 21:18:00,
2013-07-09 17:23:00,85.6,75.1,29.92,SSE,167,0.0,13.0,71,0.00,,---,0.00,VWS V13.01,2013-07-09 21:23:00,
2013-07-09 17:28:00,85.6,75.5,29.92,ESE,117,0.0,6.0,72,0.00,,---,0.00,VWS V13.01,2013-07-09 21:28:00,
2013-07-09 17:33:00,85.7,76.1,29.92,SE,136,0.0,6.0,73,0.00,,---,0.00,VWS V13.01,2013-07-09 21:33:00,
2013-07-09 17:34:00,85.7,76.5,29.92,SE,136,0.0,6.0,74,0.00,,---,0.00,VWS V13.01,2013-07-09 21:34:00,
2013-07-09 17:39:00,85.7,76.1,29.92,ESE,102,0.0,4.0,73,0.00,,---,0.00,VWS V13.01,2013-07-09 21:39:00,
2013-07-09 17:44:00,85.7,76.5,29.92,ESE,104,0.0,4.0,74,0.00,,---,0.00,VWS V13.01,2013-07-09 21:44:00,
2013-07-09 17:49:00,85.6,76.0,29.92,SSE,165,0.0,4.0,73,0.00,,---,0.00,VWS V13.01,2013-07-09 21:49:00,
2013-07-09 17:54:00,85.6,75.5,29.91,South,184,0.0,4.0,72,0.00,,---,0.00,VWS V13.01,2013-07-09 21:54:00,
2013-07-09 17:59:00,85.5,75.9,29.91,SE,134,1.0,1.0,73,0.00,,---,0.00,VWS V13.01,2013-07-09 21:59:00,
2013-07-09 18:04:00,85.6,75.1,29.92,SE,132,0.0,4.0,71,0.00,,---,0.00,VWS V13.01,2013-07-09 22:04:00,
2013-07-09 18:09:00,85.5,74.6,29.91,ESE,109,0.0,6.0,70,0.00,,---,0.00,VWS V13.01,2013-07-09 22:09:00,
2013-07-09 18:14:00,85.6,74.3,29.92,East,101,0.0,6.0,69,0.00,,---,0.00,VWS V13.01,2013-07-09 22:14:00,
2013-07-09 18:19:00,85.6,74.3,29.92,ESE,106,0.0,0.0,69,0.00,,---,0.00,VWS V13.01,2013-07-09 22:19:00,
2013-07-09 18:24:00,85.5,74.2,29.92,SE,138,0.0,2.0,69,0.00,,---,0.00,VWS V13.01,2013-07-09 22:24:00,
2013-07-09 18:29:00,85.3,74.4,29.92,South,191,0.0,7.0,70,0.00,,---,0.00,VWS V13.01,2013-07-09 22:29:00,
2013-07-09 18:34:00,85.3,75.2,29.92,ESE,115,0.0,7.0,72,0.00,,---,0.00,VWS V13.01,2013-07-09 22:34:00,
2013-07-09 18:39:00,85.4,74.5,29.92,SE,128,1.0,5.0,70,0.00,,---,0.00,VWS V13.01,2013-07-09 22:39:00,
2013-07-09 18:44:00,85.5,75.0,29.91,SE,126,1.0,5.0,71,0.00,,---,0.00,VWS V13.01,2013-07-09 22:44:00,
2013-07-09 18:49:00,85.6,75.5,29.91,ESE,115,0.0,1.0,72,0.00,,---,0.00,VWS V13.01,2013-07-09 22:49:00,
2013-07-09 18:54:00,85.6,75.1,29.92,ESE,113,0.0,3.0,71,0.00,,---,0.00,VWS V13.01,2013-07-09 22:54:00,
2013-07-09 18:59:00,85.7,74.8,29.92,East,90,0.0,0.0,70,0.00,,---,0.00,VWS V13.01,2013-07-09 22:59:00,
2013-07-09 19:04:00,85.7,74.8,29.92,ESE,113,0.0,3.0,70,0.00,,---,0.00,VWS V13.01,2013-07-09 23:04:00,
2013-07-09 19:09:00,85.6,75.1,29.92,SE,124,0.0,3.0,71,0.00,,---,0.00,VWS V13.01,2013-07-09 23:09:00,
2013-07-09 19:14:00,85.5,75.0,29.92,East,94,0.0,3.0,71,0.00,,---,0.00,VWS V13.01,2013-07-09 23:14:00,
2013-07-09 19:15:00,85.4,74.9,29.92,East,95,0.0,3.0,71,0.00,,---,0.00,VWS V13.01,2013-07-09 23:15:00,
2013-07-09 19:20:00,85.2,75.6,29.92,ENE,68,0.0,1.0,73,0.00,,---,0.00,VWS V13.01,2013-07-09 23:20:00,
2013-07-09 19:25:00,84.9,74.9,29.91,ESE,114,0.0,1.0,72,0.00,,---,0.00,VWS V13.01,2013-07-09 23:25:00,
2013-07-09 19:30:00,84.6,75.0,29.92,ESE,120,0.0,0.0,73,0.00,,---,0.00,VWS V13.01,2013-07-09 23:30:00,
2013-07-09 19:35:00,84.3,75.1,29.92,SE,128,0.0,1.0,74,0.00,,---,0.00,VWS V13.01,2013-07-09 23:35:00,
2013-07-09 19:40:00,84.1,74.9,29.92,ESE,118,0.0,2.0,74,0.00,,---,0.00,VWS V13.01,2013-07-09 23:40:00,
2013-07-09 19:45:00,83.9,75.1,29.92,ESE,123,0.0,2.0,75,0.00,,---,0.00,VWS V13.01,2013-07-09 23:45:00,
2013-07-09 19:50:00,83.9,75.1,29.91,ESE,121,0.0,0.0,75,0.00,,---,0.00,VWS V13.01,2013-07-09 23:50:00,
2013-07-09 19:55:00,83.8,75.0,29.91,ESE,118,0.0,0.0,75,0.00,,---,0.00,VWS V13.01,2013-07-09 23:55:00,
2013-07-09 20:00:00,83.7,75.3,29.92,ESE,123,0.0,3.0,76,0.00,,---,0.00,VWS V13.01,2013-07-10 00:00:00,
2013-07-09 20:05:00,83.5,75.1,29.92,ESE,110,0.0,5.0,76,0.00,,---,0.00,VWS V13.01,2013-07-10 00:05:00,
2013-07-09 20:10:00,83.2,75.2,29.92,ESE,102,0.0,2.0,77,0.00,,---,0.00,VWS V13.01,2013-07-10 00:10:00,
2013-07-09 20:15:00,82.8,75.2,29.92,ESE,113,0.0,3.0,78,0.00,,---,0.00,VWS V13.01,2013-07-10 00:15:00,
2013-07-09 20:20:00,82.4,74.9,29.92,ESE,110,0.0,3.0,78,0.00,,---,0.00,VWS V13.01,2013-07-10 00:20:00,
2013-07-09 20:25:00,82.1,74.9,29.92,SSE,165,0.0,3.0,79,0.00,,---,0.00,VWS V13.01,2013-07-10 00:25:00,
2013-07-09 20:30:00,81.7,74.9,29.92,South,169,0.0,2.0,80,0.00,,---,0.00,VWS V13.01,2013-07-10 00:30:00,
2013-07-09 20:35:00,81.4,74.6,29.92,ESE,103,0.0,3.0,80,0.00,,---,0.00,VWS V13.01,2013-07-10 00:35:00,
2013-07-09 20:40:00,81.4,75.0,29.92,SE,125,0.0,1.0,81,0.00,,---,0.00,VWS V13.01,2013-07-10 00:40:00,
2013-07-09 20:45:00,81.3,74.5,29.92,ESE,108,0.0,0.0,80,0.00,,---,0.00,VWS V13.01,2013-07-10 00:45:00,
2013-07-09 20:50:00,81.2,74.4,29.93,ESE,108,0.0,0.0,80,0.00,,---,0.00,VWS V13.01,2013-07-10 00:50:00,
2013-07-09 20:56:00,81.1,74.7,29.93,ESE,108,0.0,0.0,81,0.00,,---,0.00,VWS V13.01,2013-07-10 00:56:00,
2013-07-09 21:01:00,81.0,74.6,29.93,ESE,108,0.0,0.0,81,0.00,,---,0.00,VWS V13.01,2013-07-10 01:01:00,
2013-07-09 21:06:00,80.8,74.1,29.93,ESE,108,0.0,0.0,80,0.00,,---,0.00,VWS V13.01,2013-07-10 01:06:00,
2013-07-09 21:11:00,80.6,73.5,29.93,ESE,108,0.0,0.0,79,0.00,,---,0.00,VWS V13.01,2013-07-10 01:11:00,
2013-07-09 21:16:00,80.4,73.3,29.93,ESE,108,0.0,0.0,79,0.00,,---,0.00,VWS V13.01,2013-07-10 01:16:00,
2013-07-09 21:21:00,80.3,73.2,29.93,ESE,107,0.0,1.0,79,0.00,,---,0.00,VWS V13.01,2013-07-10 01:21:00,
2013-07-09 21:26:00,80.1,73.4,29.93,ESE,108,0.0,0.0,80,0.00,,---,0.00,VWS V13.01,2013-07-10 01:26:00,
2013-07-09 21:31:00,79.9,72.8,29.93,ESE,112,0.0,0.0,79,0.00,,---,0.00,VWS V13.01,2013-07-10 01:31:00,
2013-07-09 21:36:00,79.8,72.7,29.93,ESE,112,0.0,0.0,79,0.00,,---,0.00,VWS V13.01,2013-07-10 01:36:00,
2013-07-09 21:41:00,79.6,72.5,29.94,ESE,112,0.0,0.0,79,0.00,,---,0.00,VWS V13.01,2013-07-10 01:41:00,
2013-07-09 21:46:00,79.5,72.4,29.94,ESE,113,0.0,0.0,79,0.00,,---,0.00,VWS V13.01,2013-07-10 01:46:00,
2013-07-09 21:51:00,79.4,72.7,29.94,ESE,113,0.0,0.0,80,0.00,,---,0.00,VWS V13.01,2013-07-10 01:51:00,
2013-07-09 21:56:00,79.2,72.5,29.93,ESE,113,0.0,0.0,80,0.00,,---,0.00,VWS V13.01,2013-07-10 01:56:00,
2013-07-09 22:01:00,79.0,72.3,29.93,ESE,113,0.0,0.0,80,0.00,,---,0.00,VWS V13.01,2013-07-10 02:01:00,
2013-07-09 22:06:00,78.8,72.1,29.93,ESE,113,0.0,0.0,80,0.00,,---,0.00,VWS V13.01,2013-07-10 02:06:00,
2013-07-09 22:11:00,78.7,72.4,29.94,ESE,113,0.0,0.0,81,0.00,,---,0.00,VWS V13.01,2013-07-10 02:11:00,
2013-07-09 22:16:00,78.6,72.3,29.94,ESE,113,0.0,0.0,81,0.00,,---,0.00,VWS V13.01,2013-07-10 02:16:00,
2013-07-09 22:21:00,78.5,72.6,29.94,ESE,113,0.0,0.0,82,0.00,,---,0.00,VWS V13.01,2013-07-10 02:21:00,
2013-07-09 22:26:00,78.4,72.8,29.95,ESE,113,0.0,0.0,83,0.00,,---,0.00,VWS V13.01,2013-07-10 02:26:00,
2013-07-09 22:31:00,78.3,72.7,29.95,ESE,113,0.0,0.0,83,0.00,,---,0.00,VWS V13.01,2013-07-10 02:31:00,
2013-07-09 22:36:00,78.1,72.5,29.95,ESE,113,0.0,0.0,83,0.00,,---,0.00,VWS V13.01,2013-07-10 02:36:00,
2013-07-09 22:41:00,78.0,72.4,29.95,ESE,113,0.0,0.0,83,0.00,,---,0.00,VWS V13.01,2013-07-10 02:41:00,
2013-07-09 22:46:00,77.9,72.7,29.95,ESE,113,0.0,0.0,84,0.00,,---,0.00,VWS V13.01,2013-07-10 02:46:00,
2013-07-09 22:51:00,77.7,72.5,29.95,ESE,113,0.0,0.0,84,0.00,,---,0.00,VWS V13.01,2013-07-10 02:51:00,
2013-07-09 22:56:00,77.6,72.4,29.95,ESE,113,0.0,0.0,84,0.00,,---,0.00,VWS V13.01,2013-07-10 02:56:00,
2013-07-09 23:01:00,77.4,72.5,29.95,ESE,113,0.0,0.0,85,0.00,,---,0.00,VWS V13.01,2013-07-10 03:01:00,
2013-07-09 23:06:00,77.3,72.4,29.95,ESE,113,0.0,0.0,85,0.00,,---,0.00,VWS V13.01,2013-07-10 03:06:00,
2013-07-09 23:11:00,77.2,72.7,29.95,ESE,113,0.0,0.0,86,0.00,,---,0.00,VWS V13.01,2013-07-10 03:11:00,
2013-07-09 23:16:00,77.1,72.6,29.95,ESE,113,0.0,0.0,86,0.00,,---,0.00,VWS V13.01,2013-07-10 03:16:00,
2013-07-09 23:21:00,77.0,72.8,29.95,ESE,113,0.0,0.0,87,0.00,,---,0.00,VWS V13.01,2013-07-10 03:21:00,
2013-07-09 23:26:00,77.0,72.8,29.95,ESE,113,0.0,0.0,87,0.00,,---,0.00,VWS V13.01,2013-07-10 03:26:00,
2013-07-09 23:31:00,77.0,72.8,29.95,ESE,113,0.0,0.0,87,0.00,,---,0.00,VWS V13.01,2013-07-10 03:31:00,
2013-07-09 23:36:00,77.0,72.8,29.95,ESE,113,0.0,0.0,87,0.00,,---,0.00,VWS V13.01,2013-07-10 03:36:00,
2013-07-09 23:41:00,77.0,72.8,29.94,ESE,113,0.0,0.0,87,0.00,,---,0.00,VWS V13.01,2013-07-10 03:41:00,
2013-07-09 23:46:00,76.9,72.7,29.94,ESE,113,0.0,0.0,87,0.00,,---,0.00,VWS V13.01,2013-07-10 03:46:00,
2013-07-09 23:51:00,76.9,72.7,29.94,ESE,113,0.0,0.0,87,0.00,,---,0.00,VWS V13.01,2013-07-10 03:51:00,
2013-07-09 23:56:00,76.8,73.0,29.94,ESE,113,0.0,0.0,88,0.00,,---,0.00,VWS V13.01,2013-07-10 03:56:00,